星链-31509 (STARLINK-31509 )

导读

STARLINK-31509是美国SpaceX公司于2024年4月17日发射的星链卫星,属于星链全球低轨卫星互联网星座计划的组成部分。 星链计划旨在通过部署近地轨道卫星群,为全球偏远地区、海洋山区等传统通信盲区提供高速低延迟宽带互联网接入服务。STARLINK-31509是该计划推进过程中的一颗组网卫星,助力SpaceX持续扩展星链星座的全球覆盖能力。单颗星链卫星设计寿命约为五年,后续将逐步加入网络为用户提供服务。(119字)

Basic Information
目录编号:
59533
目录名称:
STARLINK-31509
国际标识:
2024-073Y
轨道中心:
EARTH
卫星名称:
星链-31509
卫星全名:
星链-31509 (STARLINK-31509 )
卫星状态:
在轨 (已飞行788 天)
发射日期:
2024-04-17 UTC
国别 :
美国 (US)
星等 :
--
Orbit Information
数据来源 国际轨道数据 AOE轨道数据
星历时间 2026-06-14T13:11:30+0800
8小时前
查看轨道信息
2026-06-13T00:00:00+0800
1天前
查看轨道信息
半长轴 6861.203km 6861.185km
偏心率 0.0000649 0.0001169
轨道倾角 43.006° 43.000°
近地点辐角 284.946° 256.209°
升交点赤经 133.283° 142.027°
平近点角 75.132° 211.926°
近地点 482.62km 482.245km
远地点 483.512km 483.851km
周期 94.267分钟 94.267分钟
每日圈数 15.275745 15.275805
Detailed Information
固有亮度:
5
最大亮度:
1.5
卫星平台:
Starlink v2.0 mini
覆盖范围:
全球
运营商:
太空探索技术公司
运营商所在国:
美国
制造商(研发单位):
太空探索技术公司
制造商所在国:
美国
使用方式:
暂无
Satellite Introduction
星链(Starlink)计划是由太空探索技术公司(SpaceX)提出的一个巨型低轨卫星互联网星座项目,计划在2019年至2024年间在太空搭建由约1.2万颗卫星组成的“星链”网络,其中1584颗将部署在地球上空550千米处的近地轨道,并从2020年开始工作。该卫星仍在工作。
2D Orbit Map
3D Orbit Map
Orbit Altitude Analysis Chart
Orbit Inclination Analysis Chart
Orbit Comprehensive Analysis Chart
View Comprehensive Chart